Weather History for Weaverville, CA

Change the Weather History Date:

Saturday, February 22, 2014

  Actual Average (KRDD) Record (KRDD)
Temperature  
Mean Temperature 46 °F -  
Max Temperature 64 °F 61 °F 80 °F (1988)
Min Temperature 28 °F 40 °F 29 °F (1994)
Degree Days  
Heating Degree Days 19    
Cooling Degree Days 0    
Moisture  
Dew Point 32 °F    
Average Humidity 77    
Maximum Humidity 100    
Minimum Humidity 24    
Precipitation  
Precipitation 0.00 in 0.20 in 3.17 in (2001)
Month to date precipitation 4.37  
Year to date precipitation 10.33  
Since 1 July precipitation 24.09  
Sea Level Pressure  
Sea Level Pressure 30.03 in    
Wind  
Wind Speed 1 mph (WSW)    
Max Wind Speed 7 mph    
Max Gust Speed -    
Visibility 8 miles    
Events      
T = Trace of Precipitation, MM = Missing Value Source: NWS Daily Summary

Daily Weather History Graph

Daily Weather History Graph

Search for Another Location

Airport:

Trip Planner

Search our weather history database for the weather conditions in past years. The results will help you decide how hot, cold, wet, or windy it might be!

Date:

Astronomy

Feb. 22, 2014 Rise Set
Actual Time 6:55 AM PST 5:55 PM PST
Civil Twilight 6:28 AM PST 6:22 PM PST
Nautical Twilight 5:56 AM PST 6:54 PM PST
Astronomical Twilight 5:24 AM PST 7:26 PM PST
Moon 12:57 AM PST (2/22) 11:09 AM PST (2/22)
Length of Visible Light 11h 54m
Length of Day
10h 59m
Waning Gibbous, 49% of the Moon is Illuminated
Feb 22
Waning Gibbous
Mar 1
New
Mar 8
First Quarter
Mar 16
Full
Mar 23
Last Quarter

Hourly Weather History & Observations

Time (PST) Temp. Windchill Dew Point Humidity Pressure Visibility Wind Dir Wind Speed Gust Speed Precip Events Conditions
12:15 AM 32.0 °F - 32.0 °F 100% 30.08 in 10.0 mi Calm Calm - N/A   Scattered Clouds
12:35 AM 32.0 °F - 32.0 °F 100% 30.08 in 10.0 mi Calm Calm - N/A   Partly Cloudy
12:55 AM 32.0 °F - 32.0 °F 100% 30.08 in 8.0 mi Calm Calm - N/A   Clear
1:15 AM 32.0 °F - 32.0 °F 100% 30.08 in 9.0 mi Calm Calm - N/A   Scattered Clouds
1:35 AM 32.0 °F - 30.2 °F 93% 30.08 in 9.0 mi Calm Calm - N/A   Mostly Cloudy
1:55 AM 32.0 °F - 30.2 °F 93% 30.09 in 9.0 mi Calm Calm - N/A   Scattered Clouds
2:15 AM 32.0 °F - 30.2 °F 93% 30.09 in 9.0 mi Calm Calm - N/A   Partly Cloudy
2:35 AM 32.0 °F - 28.4 °F 87% 30.08 in 5.0 mi Calm Calm - N/A   Partly Cloudy
2:55 AM 30.2 °F - 28.4 °F 93% 30.08 in 8.0 mi Calm Calm - N/A   Clear
3:15 AM 30.2 °F - 28.4 °F 93% 30.08 in 8.0 mi Calm Calm - N/A   Clear
3:35 AM 30.2 °F - 28.4 °F 93% 30.08 in 8.0 mi Calm Calm - N/A   Clear
3:55 AM 28.4 °F - 28.4 °F 100% 30.08 in 7.0 mi Calm Calm - N/A   Clear
4:15 AM 30.2 °F - 28.4 °F 93% 30.08 in 7.0 mi Calm Calm - N/A   Mostly Cloudy
4:35 AM 32.0 °F - 28.4 °F 87% 30.09 in 9.0 mi Calm Calm - N/A   Overcast
4:55 AM 32.0 °F - 30.2 °F 93% 30.09 in 7.0 mi Calm Calm - N/A   Overcast
5:15 AM 32.0 °F - 32.0 °F 100% 30.09 in 5.0 mi Calm Calm - N/A   Overcast
5:35 AM 32.0 °F - 32.0 °F 100% 30.09 in 1.0 mi Calm Calm - N/A   Overcast
5:55 AM 32.0 °F - 32.0 °F 100% 30.09 in 0.5 mi Calm Calm - N/A   Overcast
6:15 AM 32.0 °F - 32.0 °F 100% 30.09 in 0.2 mi Calm Calm - N/A   Overcast
6:35 AM 33.8 °F - 32.0 °F 93% 30.09 in 0.5 mi Calm Calm - N/A   Overcast
6:55 AM 33.8 °F - 32.0 °F 93% 30.09 in 0.5 mi Calm Calm - N/A   Overcast
7:15 AM 33.8 °F - 32.0 °F 93% 30.09 in 0.2 mi Calm Calm - N/A   Overcast
7:35 AM 33.8 °F - 32.0 °F 93% 30.09 in 0.2 mi Calm Calm - N/A   Overcast
7:55 AM 33.8 °F - 32.0 °F 93% 30.10 in 0.2 mi Calm Calm - N/A   Overcast
8:15 AM 33.8 °F - 33.8 °F 100% 30.10 in 0.2 mi Calm Calm - N/A   Overcast
8:35 AM 35.6 °F - 33.8 °F 93% 30.10 in 0.8 mi Calm Calm - N/A   Overcast
8:55 AM 35.6 °F - 33.8 °F 93% 30.10 in 1.5 mi Calm Calm - N/A   Overcast
9:15 AM 35.6 °F - 33.8 °F 93% 30.10 in 1.0 mi Calm Calm - N/A   Overcast
9:35 AM 35.6 °F - 33.8 °F 93% 30.10 in 1.0 mi Calm Calm - N/A   Overcast
9:55 AM 35.6 °F - 33.8 °F 93% 30.10 in 3.0 mi Calm Calm - N/A   Overcast
10:15 AM 35.6 °F - 35.6 °F 100% 30.10 in 10.0 mi Calm Calm - N/A   Overcast
10:35 AM 35.6 °F 32.8 °F 35.6 °F 100% 30.09 in 9.0 mi SSW 3.5 mph - N/A   Overcast
10:55 AM 37.4 °F - 35.6 °F 93% 30.09 in 10.0 mi Calm Calm - N/A   Overcast
11:15 AM 39.2 °F - 35.6 °F 87% 30.08 in 10.0 mi Calm Calm - N/A   Mostly Cloudy
11:35 AM 41.0 °F - 35.6 °F 81% 30.07 in 10.0 mi Calm Calm - N/A   Clear
11:55 AM 44.6 °F - 35.6 °F 71% 30.06 in 10.0 mi Calm Calm - N/A   Clear
12:15 PM 48.2 °F - 35.6 °F 62% 30.05 in 10.0 mi Calm Calm - N/A   Clear
12:35 PM 50.0 °F - 35.6 °F 58% 30.03 in 10.0 mi Calm Calm - N/A   Clear
12:55 PM 51.8 °F - 33.8 °F 50% 30.02 in 10.0 mi Calm Calm - N/A   Clear
1:15 PM 53.6 °F - 37.4 °F 54% 30.01 in 10.0 mi Calm Calm - N/A   Clear
1:35 PM 55.4 °F - 37.4 °F 51% 30.00 in 10.0 mi Calm Calm - N/A   Clear
1:55 PM 57.2 °F - 35.6 °F 44% 29.99 in 10.0 mi SSW 4.6 mph - N/A   Clear
2:15 PM 59.0 °F - 32.0 °F 36% 29.98 in 10.0 mi Calm Calm - N/A   Clear
2:35 PM 60.8 °F - 32.0 °F 34% 29.97 in 10.0 mi Calm Calm - N/A   Clear
2:55 PM 62.6 °F - 28.4 °F 27% 29.96 in 10.0 mi South 3.5 mph - N/A   Clear
3:15 PM 62.6 °F - 24.8 °F 24% 29.96 in 10.0 mi Calm Calm - N/A   Clear
3:35 PM 62.6 °F - 26.6 °F 26% 29.95 in 10.0 mi Calm Calm - N/A   Clear
3:55 PM 62.6 °F - 28.4 °F 27% 29.95 in 10.0 mi SSW 5.8 mph - N/A   Clear
4:15 PM 64.4 °F - 28.4 °F 26% 29.94 in 10.0 mi SW 6.9 mph - N/A   Clear
4:35 PM 62.6 °F - 28.4 °F 27% 29.94 in 10.0 mi SW 5.8 mph - N/A   Clear
4:55 PM 62.6 °F - 30.2 °F 30% 29.94 in 10.0 mi SW 5.8 mph - N/A   Clear
5:15 PM 62.6 °F - 32.0 °F 32% 29.93 in 10.0 mi SW 4.6 mph - N/A   Clear
5:35 PM 57.2 °F - 32.0 °F 38% 29.94 in 10.0 mi NE 3.5 mph - N/A   Clear
5:55 PM 53.6 °F - 33.8 °F 47% 29.94 in 10.0 mi NE 3.5 mph - N/A   Clear
6:15 PM 50.0 °F - 35.6 °F 58% 29.94 in 10.0 mi Calm Calm - N/A   Clear
6:35 PM 46.4 °F - 37.4 °F 71% 29.95 in 10.0 mi Calm Calm - N/A   Partly Cloudy
6:55 PM 44.6 °F - 35.6 °F 71% 29.95 in 10.0 mi Calm Calm - N/A   Partly Cloudy
7:15 PM 44.6 °F - 35.6 °F 71% 29.96 in 10.0 mi Calm Calm - N/A   Scattered Clouds
7:35 PM 41.0 °F - 35.6 °F 81% 29.96 in 10.0 mi Calm Calm - N/A   Scattered Clouds
7:55 PM 41.0 °F 39.0 °F 33.8 °F 76% 29.97 in 10.0 mi NNE 3.5 mph - N/A   Scattered Clouds
8:15 PM 39.2 °F - 33.8 °F 81% 29.97 in 10.0 mi Calm Calm - N/A   Scattered Clouds
8:35 PM 39.2 °F - 32.0 °F 75% 29.98 in 10.0 mi Calm Calm - N/A   Scattered Clouds
8:55 PM 39.2 °F - 32.0 °F 75% 29.99 in 10.0 mi Calm Calm - N/A   Partly Cloudy
9:15 PM 37.4 °F - 32.0 °F 81% 30.00 in 10.0 mi Calm Calm - N/A   Partly Cloudy
9:35 PM 37.4 °F - 32.0 °F 81% 30.00 in 10.0 mi Calm Calm - N/A   Partly Cloudy
9:55 PM 37.4 °F - 32.0 °F 81% 30.00 in 10.0 mi Calm Calm - N/A   Partly Cloudy
10:15 PM 35.6 °F 32.8 °F 32.0 °F 87% 30.01 in 10.0 mi NNE 3.5 mph - N/A   Partly Cloudy
10:35 PM 35.6 °F 32.8 °F 32.0 °F 87% 30.01 in 10.0 mi NNE 3.5 mph - N/A   Scattered Clouds
10:55 PM 33.8 °F - 32.0 °F 93% 30.01 in 8.0 mi Calm Calm - N/A   Scattered Clouds
11:15 PM 33.8 °F - 32.0 °F 93% 30.01 in 8.0 mi Calm Calm - N/A   Partly Cloudy
11:35 PM 33.8 °F 30.8 °F 32.0 °F 93% 30.01 in 10.0 mi NNE 3.5 mph - N/A   Partly Cloudy
11:55 PM 32.0 °F 28.7 °F 30.2 °F 93% 30.01 in 10.0 mi NNE 3.5 mph - N/A   Scattered Clouds